N72RD KMYF-KMRY

Flight info

Callsign N72RD
Flight time N/A
Altitude 3000
Route VFR
Aircraft CORS/M-SG/S

Departure

Time 2026-05-07 19:27
Airport Montgomery-Gibbs Executive Airport (KMYF)

Arrival

Time N/A
Airport Monterey Regional Airport (KMRY)
Time Latitude Longitude Altitude Speed Heading
2026-05-07 19:16 32.81124 -117.13856 427 ft 0 kts 352°
2026-05-07 19:24 32.81125 -117.13856 427 ft 1 kts 351°
2026-05-07 19:24 32.81134 -117.13856 425 ft 3 kts 33°
2026-05-07 19:24 32.81138 -117.13816 428 ft 7 kts 90°
2026-05-07 19:25 32.81179 -117.13783 427 ft 10 kts 19°
2026-05-07 19:25 32.81259 -117.13742 425 ft 12 kts 24°
2026-05-07 19:25 32.81282 -117.13683 424 ft 8 kts 116°
2026-05-07 19:25 32.81252 -117.13612 419 ft 10 kts 116°
2026-05-07 19:26 32.81283 -117.13550 425 ft 12 kts 24°
2026-05-07 19:26 32.81326 -117.13612 425 ft 25 kts 295°
2026-05-07 19:26 32.81468 -117.13959 417 ft 70 kts 295°
2026-05-07 19:26 32.81758 -117.14660 497 ft 118 kts 290°
2026-05-07 19:27 32.82150 -117.15592 993 ft 137 kts 293°
2026-05-07 19:27 32.82581 -117.16674 1384 ft 151 kts 294°
2026-05-07 19:27 32.83240 -117.17777 1424 ft 185 kts 314°
2026-05-07 19:27 32.84177 -117.18847 1803 ft 188 kts 315°
2026-05-07 19:28 32.85124 -117.19914 2221 ft 187 kts 315°
2026-05-07 19:28 32.86061 -117.20995 2618 ft 186 kts 315°
2026-05-07 19:28 32.87011 -117.22103 2829 ft 196 kts 316°
2026-05-07 19:28 32.88019 -117.23287 2930 ft 210 kts 316°
2026-05-07 19:29 32.89044 -117.24573 2979 ft 223 kts 311°
2026-05-07 19:29 32.90036 -117.26073 3000 ft 234 kts 308°
2026-05-07 19:29 32.91033 -117.27571 3002 ft 231 kts 310°
2026-05-07 19:29 32.92069 -117.29021 2993 ft 228 kts 311°
2026-05-07 19:30 32.93085 -117.30454 2988 ft 221 kts 310°
2026-05-07 19:30 32.94029 -117.31830 2979 ft 213 kts 310°
2026-05-07 19:30 32.94957 -117.33182 2982 ft 207 kts 310°
2026-05-07 19:30 32.95865 -117.34484 2980 ft 201 kts 310°
2026-05-07 19:31 32.96754 -117.35756 2975 ft 196 kts 310°
2026-05-07 19:31 32.97605 -117.36984 2979 ft 191 kts 310°
2026-05-07 19:31 32.98443 -117.38196 2979 ft 187 kts 310°
2026-05-07 19:31 32.99252 -117.39363 2986 ft 183 kts 310°
2026-05-07 19:32 33.00063 -117.40533 2987 ft 180 kts 310°
2026-05-07 19:32 33.00851 -117.41668 2990 ft 177 kts 311°
2026-05-07 19:32 33.01623 -117.42784 2987 ft 174 kts 311°
2026-05-07 19:32 33.02385 -117.43888 2984 ft 171 kts 311°
2026-05-07 19:33 33.03138 -117.44973 2986 ft 168 kts 310°
2026-05-07 19:33 33.03880 -117.46040 2983 ft 166 kts 310°
2026-05-07 19:33 33.04608 -117.47094 2986 ft 164 kts 311°
2026-05-07 19:33 33.05328 -117.48139 2989 ft 162 kts 311°
2026-05-07 19:34 33.06034 -117.49159 2987 ft 159 kts 311°
2026-05-07 19:34 33.06750 -117.50193 2957 ft 165 kts 310°
2026-05-07 19:34 33.07503 -117.51278 2975 ft 170 kts 310°
2026-05-07 19:34 33.08254 -117.52367 2995 ft 174 kts 310°
2026-05-07 19:35 33.09034 -117.53500 3004 ft 178 kts 310°
2026-05-07 19:35 33.09832 -117.54655 3007 ft 182 kts 310°
2026-05-07 19:35 33.10644 -117.55827 3004 ft 186 kts 310°
2026-05-07 19:35 33.11475 -117.57033 3008 ft 190 kts 310°
2026-05-07 19:36 33.12323 -117.58264 3010 ft 193 kts 310°
2026-05-07 19:36 33.13186 -117.59514 3004 ft 197 kts 310°
2026-05-07 19:36 33.14056 -117.60778 3004 ft 200 kts 310°
2026-05-07 19:36 33.14945 -117.62066 3000 ft 202 kts 310°
2026-05-07 19:37 33.15848 -117.63376 3002 ft 205 kts 310°
2026-05-07 19:37 33.16764 -117.64703 2996 ft 206 kts 310°
2026-05-07 19:37 33.17672 -117.66023 3000 ft 208 kts 310°
2026-05-07 19:37 33.18595 -117.67366 2995 ft 209 kts 310°
2026-05-07 19:38 33.19208 -117.68258 2992 ft 210 kts 310°
2026-05-07 19:38 33.20439 -117.70048 2995 ft 210 kts 310°
2026-05-07 19:38 33.21070 -117.70962 2996 ft 211 kts 310°
2026-05-07 19:38 33.21996 -117.72308 2998 ft 211 kts 310°
2026-05-07 19:39 33.23233 -117.74113 2989 ft 212 kts 310°
2026-05-07 19:39 33.23854 -117.75020 2993 ft 212 kts 310°
2026-05-07 19:39 33.24801 -117.76398 2999 ft 213 kts 310°
2026-05-07 19:39 33.25738 -117.77758 2998 ft 215 kts 310°
2026-05-07 19:40 33.26696 -117.79154 2998 ft 214 kts 310°
2026-05-07 19:40 33.27627 -117.80513 2991 ft 213 kts 310°
2026-05-07 19:40 33.28564 -117.81881 2993 ft 211 kts 310°
2026-05-07 19:40 33.29498 -117.83242 2995 ft 211 kts 310°
2026-05-07 19:41 33.30416 -117.84583 2992 ft 210 kts 309°
2026-05-07 19:41 33.31339 -117.85930 2990 ft 208 kts 309°
2026-05-07 19:41 33.32259 -117.87279 2992 ft 208 kts 310°
2026-05-07 19:41 33.33166 -117.88601 2994 ft 207 kts 310°
2026-05-07 19:42 33.34087 -117.89947 3000 ft 207 kts 309°
2026-05-07 19:42 33.35002 -117.91284 2999 ft 207 kts 309°
2026-05-07 19:42 33.35905 -117.92607 2995 ft 206 kts 310°
2026-05-07 19:42 33.36813 -117.93938 2998 ft 205 kts 310°
2026-05-07 19:43 33.37712 -117.95252 2996 ft 205 kts 310°
2026-05-07 19:43 33.38621 -117.96583 2996 ft 205 kts 310°
2026-05-07 19:43 33.39520 -117.97900 2993 ft 204 kts 310°
2026-05-07 19:43 33.40409 -117.99203 2992 ft 203 kts 309°
2026-05-07 19:44 33.41306 -118.00518 2992 ft 203 kts 309°
2026-05-07 19:44 33.42201 -118.01830 2998 ft 202 kts 309°
2026-05-07 19:44 33.43081 -118.03120 2995 ft 202 kts 309°
2026-05-07 19:44 33.43971 -118.04429 3000 ft 201 kts 309°
2026-05-07 19:45 33.44855 -118.05728 2998 ft 201 kts 309°
2026-05-07 19:45 33.45731 -118.07013 2995 ft 201 kts 309°
2026-05-07 19:45 33.46615 -118.08312 2999 ft 201 kts 309°
2026-05-07 19:45 33.47499 -118.09610 2993 ft 201 kts 309°
2026-05-07 19:46 33.48386 -118.10915 3008 ft 201 kts 309°
2026-05-07 19:46 33.49276 -118.12223 3005 ft 202 kts 309°
2026-05-07 19:46 33.50157 -118.13520 3004 ft 202 kts 309°
2026-05-07 19:46 33.51050 -118.14835 3011 ft 202 kts 309°
2026-05-07 19:47 33.51931 -118.16131 3004 ft 202 kts 309°
2026-05-07 19:47 33.52822 -118.17443 3006 ft 202 kts 309°
2026-05-07 19:47 33.53700 -118.18738 3008 ft 201 kts 309°
2026-05-07 19:47 33.54589 -118.20049 3007 ft 201 kts 309°
2026-05-07 19:48 33.55461 -118.21334 3008 ft 201 kts 309°
2026-05-07 19:48 33.56350 -118.22643 3010 ft 201 kts 309°
2026-05-07 19:48 33.57229 -118.23940 3010 ft 201 kts 309°
2026-05-07 19:48 33.58113 -118.25249 3014 ft 201 kts 309°
2026-05-07 19:49 33.58993 -118.26551 3010 ft 201 kts 309°
2026-05-07 19:49 33.59868 -118.27840 3000 ft 202 kts 309°
2026-05-07 19:49 33.60761 -118.29156 2999 ft 202 kts 309°
2026-05-07 19:49 33.61636 -118.30451 2998 ft 202 kts 309°
2026-05-07 19:50 33.62524 -118.31769 3000 ft 202 kts 309°
2026-05-07 19:50 33.63412 -118.33079 2999 ft 202 kts 309°
2026-05-07 19:50 33.64290 -118.34377 2999 ft 202 kts 309°
2026-05-07 19:50 33.65179 -118.35692 2995 ft 201 kts 309°
2026-05-07 19:51 33.66059 -118.36998 3001 ft 201 kts 309°
2026-05-07 19:51 33.66944 -118.38310 3002 ft 202 kts 309°
2026-05-07 19:51 33.67821 -118.39610 3004 ft 202 kts 309°
2026-05-07 19:51 33.68711 -118.40929 3006 ft 202 kts 309°
2026-05-07 19:52 33.69597 -118.42240 3002 ft 203 kts 309°
2026-05-07 19:52 33.70478 -118.43549 3000 ft 203 kts 309°
2026-05-07 19:52 33.71364 -118.44868 3003 ft 203 kts 309°
2026-05-07 19:52 33.72254 -118.46187 3004 ft 203 kts 309°
2026-05-07 19:53 33.73140 -118.47501 2997 ft 203 kts 309°
2026-05-07 19:53 33.74028 -118.48819 2999 ft 202 kts 309°
2026-05-07 19:53 33.74917 -118.50141 3000 ft 202 kts 309°
2026-05-07 19:53 33.75791 -118.51442 3003 ft 201 kts 309°
2026-05-07 19:54 33.76674 -118.52755 2996 ft 201 kts 309°
2026-05-07 19:54 33.77546 -118.54053 2999 ft 200 kts 309°
2026-05-07 19:54 33.78420 -118.55354 2996 ft 197 kts 309°
2026-05-07 19:54 33.79269 -118.56616 2999 ft 195 kts 309°
2026-05-07 19:55 33.80123 -118.57887 3001 ft 194 kts 308°
2026-05-07 19:55 33.80971 -118.59152 2999 ft 192 kts 308°
2026-05-07 19:55 33.81797 -118.60386 2997 ft 191 kts 309°
2026-05-07 19:55 33.82630 -118.61629 3003 ft 190 kts 309°
2026-05-07 19:56 33.83456 -118.62857 3001 ft 188 kts 309°
2026-05-07 19:56 33.84276 -118.64080 3000 ft 187 kts 308°
2026-05-07 19:56 33.85099 -118.65312 3002 ft 186 kts 308°
2026-05-07 19:56 33.85911 -118.66521 2998 ft 185 kts 308°
2026-05-07 19:57 33.86711 -118.67715 2998 ft 184 kts 308°
2026-05-07 19:57 33.87512 -118.68915 3000 ft 183 kts 308°
2026-05-07 19:57 33.88308 -118.70106 3003 ft 183 kts 308°
2026-05-07 19:57 33.89099 -118.71285 3002 ft 183 kts 308°
2026-05-07 19:58 33.89909 -118.72496 3003 ft 184 kts 308°
2026-05-07 19:58 33.90709 -118.73693 3000 ft 184 kts 308°
2026-05-07 19:58 33.91504 -118.74885 3002 ft 184 kts 308°
2026-05-07 19:58 33.92312 -118.76094 2999 ft 184 kts 308°
2026-05-07 19:59 33.93107 -118.77286 3002 ft 185 kts 308°
2026-05-07 19:59 33.93916 -118.78496 3005 ft 185 kts 308°
2026-05-07 19:59 33.94722 -118.79703 3003 ft 186 kts 308°
2026-05-07 19:59 33.95535 -118.80924 3000 ft 186 kts 308°
2026-05-07 20:00 33.96339 -118.82130 3001 ft 186 kts 308°
2026-05-07 20:00 33.97152 -118.83348 3003 ft 186 kts 308°
2026-05-07 20:00 33.97967 -118.84571 3004 ft 186 kts 308°
2026-05-07 20:00 33.98769 -118.85776 3007 ft 186 kts 308°
2026-05-07 20:01 33.99580 -118.86994 3011 ft 186 kts 308°
2026-05-07 20:01 34.00392 -118.88213 3007 ft 186 kts 308°
2026-05-07 20:01 34.01201 -118.89429 3012 ft 186 kts 308°
2026-05-07 20:01 34.02016 -118.90652 3015 ft 187 kts 308°
2026-05-07 20:02 34.02822 -118.91863 3013 ft 187 kts 308°
2026-05-07 20:02 34.03639 -118.93096 3012 ft 188 kts 308°
2026-05-07 20:02 34.04451 -118.94315 3009 ft 189 kts 307°
2026-05-07 20:02 34.05288 -118.95590 3139 ft 195 kts 308°
2026-05-07 20:03 34.06149 -118.96876 3192 ft 203 kts 308°
2026-05-07 20:03 34.07050 -118.98222 3183 ft 207 kts 308°
2026-05-07 20:03 34.07955 -118.99594 3180 ft 210 kts 308°
2026-05-07 20:03 34.08877 -119.00980 3148 ft 210 kts 308°
2026-05-07 20:04 34.09779 -119.02339 3112 ft 209 kts 308°
2026-05-07 20:04 34.10713 -119.03684 3079 ft 208 kts 313°
2026-05-07 20:04 34.11776 -119.04893 3067 ft 208 kts 317°
2026-05-07 20:04 34.12851 -119.06016 3073 ft 207 kts 319°
2026-05-07 20:05 34.14006 -119.07077 3050 ft 207 kts 325°
2026-05-07 20:05 34.15212 -119.07992 3042 ft 205 kts 327°
2026-05-07 20:05 34.16405 -119.08940 3050 ft 205 kts 324°
2026-05-07 20:05 34.17565 -119.09933 3026 ft 203 kts 324°
2026-05-07 20:06 34.18741 -119.10917 3036 ft 205 kts 324°
2026-05-07 20:06 34.19911 -119.11871 3040 ft 205 kts 324°
2026-05-07 20:06 34.21114 -119.12852 3017 ft 206 kts 324°
2026-05-07 20:06 34.22288 -119.13826 3009 ft 206 kts 324°
2026-05-07 20:07 34.23476 -119.14813 2995 ft 206 kts 324°
2026-05-07 20:07 34.24656 -119.15785 2997 ft 204 kts 324°
2026-05-07 20:07 34.25815 -119.16737 2993 ft 202 kts 324°
2026-05-07 20:07 34.26976 -119.17695 3009 ft 202 kts 324°
2026-05-07 20:08 34.28138 -119.18661 3018 ft 203 kts 324°
2026-05-07 20:08 34.29309 -119.19627 3000 ft 204 kts 324°
2026-05-07 20:08 34.30457 -119.20573 2998 ft 202 kts 324°
2026-05-07 20:08 34.31623 -119.21540 3001 ft 201 kts 324°
2026-05-07 20:09 34.32536 -119.22785 2954 ft 201 kts 293°
2026-05-07 20:09 34.32789 -119.24447 2993 ft 200 kts 274°
2026-05-07 20:09 34.32844 -119.26138 3057 ft 201 kts 271°
2026-05-07 20:10 34.32583 -119.29487 3061 ft 201 kts 262°
2026-05-07 20:10 34.32440 -119.31184 3062 ft 203 kts 266°
2026-05-07 20:10 34.32348 -119.32880 3120 ft 207 kts 266°
2026-05-07 20:10 34.32221 -119.34629 3082 ft 208 kts 264°
2026-05-07 20:11 34.32053 -119.36374 3128 ft 211 kts 264°
2026-05-07 20:11 34.31918 -119.38171 3111 ft 213 kts 266°
2026-05-07 20:11 34.31789 -119.39947 3126 ft 215 kts 265°
2026-05-07 20:11 34.31659 -119.41737 3064 ft 213 kts 265°
2026-05-07 20:12 34.31521 -119.43526 3025 ft 211 kts 265°
2026-05-07 20:12 34.31382 -119.45273 3011 ft 209 kts 265°
2026-05-07 20:12 34.31248 -119.47018 2995 ft 206 kts 265°
2026-05-07 20:12 34.31117 -119.48744 2997 ft 204 kts 265°
2026-05-07 20:13 34.30988 -119.50433 2996 ft 202 kts 265°
2026-05-07 20:13 34.30853 -119.52126 2995 ft 201 kts 265°
2026-05-07 20:13 34.30722 -119.53792 2989 ft 200 kts 265°
2026-05-07 20:13 34.30592 -119.55468 2986 ft 199 kts 265°
2026-05-07 20:14 34.30463 -119.57138 2989 ft 197 kts 265°
2026-05-07 20:14 34.30336 -119.58767 2991 ft 196 kts 265°
2026-05-07 20:14 34.30207 -119.60414 2993 ft 195 kts 265°
2026-05-07 20:14 34.30079 -119.62034 2995 ft 195 kts 265°
2026-05-07 20:15 34.29949 -119.63669 2995 ft 195 kts 265°
2026-05-07 20:15 34.29822 -119.65301 2986 ft 194 kts 266°
2026-05-07 20:15 34.29693 -119.66924 2990 ft 192 kts 266°
2026-05-07 20:15 34.29568 -119.68513 2991 ft 191 kts 265°
2026-05-07 20:16 34.29441 -119.70124 2995 ft 190 kts 266°
2026-05-07 20:16 34.29313 -119.71724 2997 ft 190 kts 265°
2026-05-07 20:16 34.29190 -119.73297 2996 ft 189 kts 266°
2026-05-07 20:16 34.29060 -119.74888 2993 ft 189 kts 266°
2026-05-07 20:17 34.28933 -119.76472 2993 ft 188 kts 266°
2026-05-07 20:17 34.28807 -119.78052 2992 ft 188 kts 266°
2026-05-07 20:17 34.28686 -119.79609 2998 ft 188 kts 266°
2026-05-07 20:17 34.28559 -119.81183 2997 ft 188 kts 266°
2026-05-07 20:18 34.28429 -119.82772 2996 ft 188 kts 266°
2026-05-07 20:18 34.28304 -119.84337 2994 ft 188 kts 266°
2026-05-07 20:18 34.28427 -119.85891 2955 ft 187 kts 295°
2026-05-07 20:18 34.29215 -119.87127 2970 ft 185 kts 314°
2026-05-07 20:19 34.30134 -119.88217 2979 ft 185 kts 317°
2026-05-07 20:19 34.31135 -119.89214 2981 ft 185 kts 323°
2026-05-07 20:19 34.32178 -119.90085 2986 ft 184 kts 325°
2026-05-07 20:19 34.33220 -119.90992 2990 ft 184 kts 322°
2026-05-07 20:20 34.34227 -119.91934 2993 ft 184 kts 322°
2026-05-07 20:20 34.34916 -119.92575 2990 ft 184 kts 323°
2026-05-07 20:20 34.36269 -119.93792 2991 ft 183 kts 323°
2026-05-07 20:20 34.36955 -119.94405 2986 ft 182 kts 323°
2026-05-07 20:21 34.37975 -119.95329 2990 ft 182 kts 323°
2026-05-07 20:21 34.38980 -119.96247 2993 ft 182 kts 323°
2026-05-07 20:21 34.39994 -119.97167 2996 ft 182 kts 323°
2026-05-07 20:21 34.41008 -119.98088 3001 ft 183 kts 323°
2026-05-07 20:22 34.42018 -119.99005 2995 ft 183 kts 323°
2026-05-07 20:22 34.43051 -119.99940 2996 ft 184 kts 323°
2026-05-07 20:22 34.44076 -120.00872 3000 ft 185 kts 323°
2026-05-07 20:22 34.45093 -120.01796 2997 ft 185 kts 323°
2026-05-07 20:23 34.46133 -120.02744 3060 ft 188 kts 323°
2026-05-07 20:23 34.47204 -120.03717 3140 ft 196 kts 323°
2026-05-07 20:23 34.48309 -120.04717 3120 ft 199 kts 323°
2026-05-07 20:23 34.49405 -120.05714 3086 ft 199 kts 323°
2026-05-07 20:24 34.50511 -120.06719 3073 ft 199 kts 323°
2026-05-07 20:24 34.51627 -120.07733 3071 ft 200 kts 322°
2026-05-07 20:24 34.52725 -120.08737 3051 ft 199 kts 323°
2026-05-07 20:24 34.53816 -120.09736 3005 ft 196 kts 323°
2026-05-07 20:25 34.54912 -120.10741 3072 ft 198 kts 323°
2026-05-07 20:25 34.56028 -120.11766 3138 ft 205 kts 323°
2026-05-07 20:25 34.57176 -120.12822 3134 ft 206 kts 323°
2026-05-07 20:25 34.58297 -120.13844 3117 ft 203 kts 323°
2026-05-07 20:26 34.59418 -120.14876 3068 ft 200 kts 323°
2026-05-07 20:26 34.60510 -120.15882 3030 ft 195 kts 322°
2026-05-07 20:26 34.61573 -120.16863 3012 ft 190 kts 323°
2026-05-07 20:26 34.62622 -120.17828 2990 ft 184 kts 323°
2026-05-07 20:27 34.63619 -120.18741 2975 ft 179 kts 323°
2026-05-07 20:27 34.64606 -120.19650 2956 ft 174 kts 323°
2026-05-07 20:27 34.65560 -120.20527 2926 ft 171 kts 323°
2026-05-07 20:27 34.66489 -120.21385 2932 ft 167 kts 323°
2026-05-07 20:28 34.67403 -120.22226 2910 ft 164 kts 323°
2026-05-07 20:28 34.68322 -120.23068 2889 ft 163 kts 324°
2026-05-07 20:28 34.69216 -120.23895 2900 ft 160 kts 323°
2026-05-07 20:28 34.70077 -120.24692 2874 ft 156 kts 323°
2026-05-07 20:29 34.70944 -120.25489 2817 ft 156 kts 324°
2026-05-07 20:29 34.71804 -120.26277 2813 ft 153 kts 323°
2026-05-07 20:29 34.72644 -120.27055 2784 ft 151 kts 323°
2026-05-07 20:29 34.73479 -120.27829 2757 ft 150 kts 324°
2026-05-07 20:30 34.74310 -120.28597 2738 ft 149 kts 324°
2026-05-07 20:30 34.75128 -120.29340 2716 ft 146 kts 324°
2026-05-07 20:30 34.75938 -120.30097 2670 ft 146 kts 324°
2026-05-07 20:30 34.76740 -120.30837 2607 ft 146 kts 324°
2026-05-07 20:31 34.77538 -120.31580 2616 ft 142 kts 325°
2026-05-07 20:31 34.78324 -120.32297 2615 ft 139 kts 324°
2026-05-07 20:31 34.79085 -120.32999 2588 ft 139 kts 325°
2026-05-07 20:31 34.79879 -120.33734 2660 ft 151 kts 324°
2026-05-07 20:32 34.80703 -120.34505 2865 ft 150 kts 324°
2026-05-07 20:32 34.81545 -120.35285 2959 ft 152 kts 326°
2026-05-07 20:32 34.82415 -120.36074 2886 ft 166 kts 327°
2026-05-07 20:32 34.83466 -120.36880 2138 ft 193 kts 328°
2026-05-07 20:33 34.84595 -120.37836 1539 ft 198 kts 314°
2026-05-07 20:33 34.85711 -120.38903 735 ft 211 kts 327°
2026-05-07 20:33 34.86908 -120.39924 606 ft 206 kts 323°
2026-05-07 20:33 34.88078 -120.40824 691 ft 191 kts 327°
2026-05-07 20:34 34.89235 -120.41596 544 ft 197 kts 342°
2026-05-07 20:34 34.90609 -120.41786 383 ft 202 kts 358°
2026-05-07 20:34 34.92011 -120.41785 306 ft 201 kts 358°
2026-05-07 20:34 34.93388 -120.41773 298 ft 197 kts 358°
2026-05-07 20:35 34.94752 -120.41749 271 ft 196 kts
2026-05-07 20:35 34.95987 -120.41869 927 ft 168 kts 323°
2026-05-07 20:35 34.96350 -120.43161 1396 ft 164 kts 259°
2026-05-07 20:35 34.95782 -120.44390 1544 ft 179 kts 236°
2026-05-07 20:36 34.94853 -120.45616 1080 ft 212 kts 231°
2026-05-07 20:36 34.93836 -120.47002 1012 ft 220 kts 232°
2026-05-07 20:36 34.92642 -120.47933 1441 ft 210 kts 171°
2026-05-07 20:36 34.91400 -120.47043 572 ft 211 kts 148°
2026-05-07 20:37 34.90368 -120.45874 251 ft 183 kts 136°
2026-05-07 20:37 34.89559 -120.44914 269 ft 144 kts 138°
2026-05-07 20:37 34.88834 -120.44077 422 ft 142 kts 139°
2026-05-07 20:37 34.88017 -120.43445 704 ft 144 kts 177°
2026-05-07 20:38 34.87161 -120.43195 1213 ft 133 kts 118°
2026-05-07 20:38 34.87463 -120.42211 1230 ft 149 kts 14°
2026-05-07 20:38 34.88256 -120.42855 1071 ft 149 kts 297°
2026-05-07 20:38 34.88772 -120.43887 611 ft 136 kts 307°
2026-05-07 20:39 34.89380 -120.44670 299 ft 116 kts 314°
2026-05-07 20:39 34.89885 -120.45266 248 ft 85 kts 317°
2026-05-07 20:39 34.90213 -120.45655 238 ft 38 kts 311°
2026-05-07 20:39 34.90290 -120.45760 234 ft 4 kts 313°
2026-05-07 20:40 34.90293 -120.45763 234 ft 0 kts 313°
2026-05-07 20:40 34.90304 -120.45778 234 ft 3 kts 342°
2026-05-07 20:40 34.90340 -120.45706 235 ft 20 kts 61°